TimeCDT,TemperatureF,Dew PointF,Humidity,Sea Level PressureIn,VisibilityMPH,Wind Direction,Wind SpeedMPH,Gust SpeedMPH,PrecipitationIn,Events,Conditions,WindDirDegrees,DateUTC
12:15 AM,60.8,55.4,82,30.08,10.0,East,3.5,-,N/A,,Clear,80,2013-06-18 05:15:00
12:35 AM,60.8,55.4,82,30.08,10.0,Calm,Calm,-,N/A,,Clear,0,2013-06-18 05:35:00
12:55 AM,60.8,53.6,77,30.09,10.0,ESE,4.6,-,N/A,,Clear,110,2013-06-18 05:55:00
1:16 AM,59.0,53.6,82,30.08,10.0,ESE,4.6,-,N/A,,Clear,110,2013-06-18 06:16:00
1:35 AM,59.0,53.6,82,30.09,10.0,ESE,5.8,-,N/A,,Clear,110,2013-06-18 06:35:00
1:55 AM,59.0,53.6,82,30.09,10.0,East,4.6,-,N/A,,Clear,100,2013-06-18 06:55:00
2:15 AM,59.0,53.6,82,30.09,10.0,ESE,4.6,-,N/A,,Clear,110,2013-06-18 07:15:00
2:35 AM,57.2,53.6,88,30.09,10.0,ESE,5.8,-,N/A,,Clear,110,2013-06-18 07:35:00
2:55 AM,57.2,51.8,82,30.10,10.0,ESE,3.5,-,N/A,,Clear,110,2013-06-18 07:55:00
3:16 AM,55.4,51.8,88,30.10,10.0,ESE,5.8,-,N/A,,Clear,120,2013-06-18 08:16:00
3:35 AM,55.4,51.8,88,30.11,10.0,ESE,6.9,-,N/A,,Clear,120,2013-06-18 08:35:00
3:55 AM,55.4,51.8,88,30.11,10.0,SE,9.2,-,N/A,,Clear,130,2013-06-18 08:55:00
4:15 AM,55.4,51.8,88,30.11,10.0,SE,8.1,-,N/A,,Clear,130,2013-06-18 09:15:00
4:35 AM,55.4,51.8,88,30.11,10.0,SE,8.1,-,N/A,,Clear,130,2013-06-18 09:35:00
4:55 AM,53.6,51.8,94,30.11,10.0,SE,5.8,-,N/A,,Clear,130,2013-06-18 09:55:00
5:16 AM,53.6,51.8,94,30.12,10.0,ESE,6.9,-,N/A,,Clear,120,2013-06-18 10:16:00
5:35 AM,53.6,50.0,88,30.12,10.0,ESE,4.6,-,N/A,,Clear,120,2013-06-18 10:35:00
5:56 AM,53.6,50.0,88,30.12,10.0,SE,4.6,-,N/A,,Clear,130,2013-06-18 10:56:00
6:15 AM,53.6,48.2,82,30.12,10.0,SE,5.8,-,N/A,,Clear,130,2013-06-18 11:15:00
6:35 AM,53.6,42.8,67,30.13,10.0,SE,6.9,-,N/A,,Clear,130,2013-06-18 11:35:00
6:56 AM,53.6,39.2,58,30.13,10.0,SE,6.9,-,N/A,,Clear,140,2013-06-18 11:56:00
7:15 AM,53.6,33.8,47,30.12,10.0,SE,5.8,-,N/A,,Clear,130,2013-06-18 12:15:00
7:35 AM,55.4,35.6,47,30.13,10.0,SE,6.9,-,N/A,,Clear,140,2013-06-18 12:35:00
7:55 AM,55.4,33.8,44,30.13,10.0,SE,6.9,-,N/A,,Clear,140,2013-06-18 12:55:00
8:16 AM,57.2,35.6,44,30.14,10.0,SSE,8.1,-,N/A,,Clear,150,2013-06-18 13:16:00
8:35 AM,59.0,35.6,42,30.14,10.0,SE,5.8,-,N/A,,Clear,140,2013-06-18 13:35:00
8:55 AM,59.0,37.4,45,30.14,10.0,SE,6.9,-,N/A,,Clear,130,2013-06-18 13:55:00
9:16 AM,60.8,37.4,42,30.14,10.0,SE,4.6,-,N/A,,Clear,130,2013-06-18 14:16:00
9:35 AM,60.8,41.0,48,30.14,10.0,SSE,8.1,-,N/A,,Clear,150,2013-06-18 14:35:00
9:55 AM,62.6,42.8,48,30.14,10.0,SSE,5.8,-,N/A,,Clear,160,2013-06-18 14:55:00
10:16 AM,62.6,44.6,52,30.14,10.0,SSE,4.6,-,N/A,,Clear,150,2013-06-18 15:16:00
10:35 AM,64.4,44.6,49,30.13,10.0,SE,5.8,-,N/A,,Clear,140,2013-06-18 15:35:00
10:55 AM,64.4,46.4,52,30.12,10.0,SE,6.9,-,N/A,,Clear,130,2013-06-18 15:55:00
11:16 AM,66.2,46.4,49,30.13,10.0,SSE,5.8,-,N/A,,Clear,160,2013-06-18 16:16:00
11:35 AM,68.0,48.2,49,30.12,10.0,ESE,6.9,-,N/A,,Clear,110,2013-06-18 16:35:00
11:55 AM,68.0,48.2,49,30.12,10.0,SE,6.9,-,N/A,,Clear,130,2013-06-18 16:55:00
12:15 PM,68.0,48.2,49,30.11,10.0,South,5.8,-,N/A,,Clear,170,2013-06-18 17:15:00
12:35 PM,69.8,46.4,43,30.10,10.0,SE,9.2,-,N/A,,Clear,140,2013-06-18 17:35:00
12:56 PM,69.8,46.4,43,30.10,10.0,South,9.2,-,N/A,,Clear,170,2013-06-18 17:56:00
1:15 PM,69.8,46.4,43,30.10,10.0,SSE,9.2,-,N/A,,Clear,150,2013-06-18 18:15:00
1:35 PM,69.8,44.6,40,30.09,10.0,South,6.9,-,N/A,,Clear,170,2013-06-18 18:35:00
1:56 PM,71.6,44.6,38,30.09,10.0,SSE,9.2,-,N/A,,Clear,150,2013-06-18 18:56:00
2:15 PM,71.6,44.6,38,30.08,10.0,South,8.1,-,N/A,,Clear,170,2013-06-18 19:15:00
2:35 PM,73.4,46.4,38,30.08,10.0,SSE,8.1,-,N/A,,Clear,150,2013-06-18 19:35:00
2:56 PM,71.6,44.6,38,30.07,10.0,SSE,9.2,-,N/A,,Clear,160,2013-06-18 19:56:00
3:15 PM,73.4,44.6,36,30.07,10.0,South,8.1,-,N/A,,Clear,180,2013-06-18 20:15:00
3:35 PM,73.4,44.6,36,30.07,10.0,SSE,8.1,-,N/A,,Clear,160,2013-06-18 20:35:00
3:56 PM,73.4,44.6,36,30.06,10.0,SSE,6.9,-,N/A,,Clear,150,2013-06-18 20:56:00
4:15 PM,73.4,44.6,36,30.06,10.0,SSE,5.8,-,N/A,,Clear,150,2013-06-18 21:15:00
4:35 PM,73.4,42.8,33,30.06,10.0,ESE,4.6,-,N/A,,Clear,120,2013-06-18 21:35:00
4:56 PM,73.4,42.8,33,30.05,10.0,Calm,Calm,-,N/A,,Clear,0,2013-06-18 21:56:00
5:15 PM,73.4,42.8,33,30.05,10.0,Calm,Calm,-,N/A,,Clear,0,2013-06-18 22:15:00
5:35 PM,73.4,44.6,36,30.05,10.0,Calm,Calm,-,N/A,,Clear,0,2013-06-18 22:35:00
5:56 PM,71.6,42.8,35,30.05,10.0,Calm,Calm,-,N/A,,Clear,0,2013-06-18 22:56:00
6:15 PM,73.4,44.6,36,30.04,10.0,South,5.8,-,N/A,,Clear,170,2013-06-18 23:15:00
6:35 PM,73.4,44.6,36,30.03,10.0,SSE,5.8,-,N/A,,Clear,150,2013-06-18 23:35:00
6:56 PM,73.4,44.6,36,30.03,10.0,SSE,5.8,-,N/A,,Clear,150,2013-06-18 23:56:00
7:15 PM,73.4,44.6,36,30.02,10.0,South,8.1,-,N/A,,Clear,180,2013-06-19 00:15:00
7:35 PM,73.4,44.6,36,30.02,10.0,SSE,6.9,-,N/A,,Clear,150,2013-06-19 00:35:00
7:56 PM,73.4,44.6,36,30.02,10.0,South,6.9,-,N/A,,Clear,170,2013-06-19 00:56:00
8:15 PM,71.6,46.4,41,30.02,10.0,SSE,5.8,-,N/A,,Clear,160,2013-06-19 01:15:00
8:35 PM,69.8,48.2,46,30.02,10.0,SSE,5.8,-,N/A,,Clear,160,2013-06-19 01:35:00
8:56 PM,69.8,46.4,43,30.01,10.0,SE,4.6,-,N/A,,Clear,140,2013-06-19 01:56:00
9:15 PM,69.8,48.2,46,30.01,10.0,SE,4.6,-,N/A,,Clear,140,2013-06-19 02:15:00
9:35 PM,69.8,48.2,46,30.01,10.0,SE,5.8,-,N/A,,Clear,130,2013-06-19 02:35:00
9:56 PM,68.0,48.2,49,30.02,10.0,SE,4.6,-,N/A,,Clear,140,2013-06-19 02:56:00
10:15 PM,64.4,50.0,59,30.03,10.0,SSE,5.8,-,N/A,,Clear,150,2013-06-19 03:15:00
10:35 PM,64.4,51.8,64,30.03,10.0,SSE,5.8,-,N/A,,Clear,150,2013-06-19 03:35:00
10:56 PM,64.4,51.8,64,30.03,10.0,SE,6.9,-,N/A,,Clear,130,2013-06-19 03:56:00
11:15 PM,62.6,51.8,68,30.02,10.0,SSE,4.6,-,N/A,,Clear,150,2013-06-19 04:15:00
11:35 PM,62.6,51.8,68,30.02,10.0,SE,4.6,-,N/A,,Clear,140,2013-06-19 04:35:00
11:56 PM,64.4,51.8,64,30.02,10.0,SE,5.8,-,N/A,,Clear,140,2013-06-19 04:56:00